TimeCDT,TemperatureF,Dew PointF,Humidity,Sea Level PressureIn,VisibilityMPH,Wind Direction,Wind SpeedMPH,Gust SpeedMPH,PrecipitationIn,Events,Conditions,WindDirDegrees,DateUTC
12:15 AM,28.0,24.4,86,30.40,10.0,Calm,Calm,-,N/A,,Clear,0,2013-03-14 05:15:00
12:35 AM,28.2,23.9,84,30.40,10.0,Calm,Calm,-,N/A,,Clear,0,2013-03-14 05:35:00
12:55 AM,27.0,23.5,87,30.40,10.0,Calm,Calm,-,N/A,,Clear,0,2013-03-14 05:55:00
1:15 AM,27.9,23.9,85,30.40,10.0,Calm,Calm,-,N/A,,Clear,0,2013-03-14 06:15:00
1:35 AM,26.6,24.8,93,30.40,10.0,Calm,Calm,-,N/A,,Clear,0,2013-03-14 06:35:00
1:55 AM,27.0,24.6,91,30.40,10.0,Calm,Calm,-,N/A,,Clear,0,2013-03-14 06:55:00
2:15 AM,27.7,25.0,90,30.40,10.0,Calm,Calm,-,N/A,,Clear,0,2013-03-14 07:15:00
2:35 AM,26.6,24.6,92,30.39,10.0,Calm,Calm,-,N/A,,Clear,0,2013-03-14 07:35:00
2:55 AM,26.4,24.1,91,30.39,10.0,Calm,Calm,-,N/A,,Clear,0,2013-03-14 07:55:00
3:15 AM,26.4,24.3,92,30.39,10.0,Calm,Calm,-,N/A,,Clear,0,2013-03-14 08:15:00
3:35 AM,26.4,23.9,90,30.39,10.0,Calm,Calm,-,N/A,,Clear,0,2013-03-14 08:35:00
3:55 AM,26.6,23.2,87,30.38,10.0,Calm,Calm,-,N/A,,Clear,0,2013-03-14 08:55:00
4:15 AM,25.7,23.5,92,30.37,10.0,Calm,Calm,-,N/A,,Clear,0,2013-03-14 09:15:00
4:35 AM,26.6,23.9,90,30.37,10.0,Calm,Calm,-,N/A,,Clear,0,2013-03-14 09:35:00
4:55 AM,26.6,23.7,89,30.36,10.0,Calm,Calm,-,N/A,,Clear,0,2013-03-14 09:55:00
5:15 AM,26.8,23.7,88,30.36,10.0,Calm,Calm,-,N/A,,Clear,0,2013-03-14 10:15:00
5:35 AM,26.1,23.7,91,30.36,10.0,Calm,Calm,-,N/A,,Clear,0,2013-03-14 10:35:00
5:55 AM,26.2,23.9,91,30.37,10.0,Calm,Calm,-,N/A,,Clear,0,2013-03-14 10:55:00
6:15 AM,25.7,23.4,91,30.37,10.0,Calm,Calm,-,N/A,,Clear,0,2013-03-14 11:15:00
6:35 AM,25.7,23.4,91,30.37,10.0,Calm,Calm,-,N/A,,Scattered Clouds,0,2013-03-14 11:35:00
6:55 AM,28.2,24.3,85,30.36,10.0,SE,3.5,-,N/A,,Mostly Cloudy,140,2013-03-14 11:55:00
7:15 AM,29.8,23.5,77,30.36,10.0,SSE,4.6,-,N/A,,Overcast,160,2013-03-14 12:15:00
7:35 AM,29.8,23.9,79,30.35,10.0,SSE,4.6,-,N/A,,Overcast,150,2013-03-14 12:35:00
7:55 AM,30.6,24.6,79,30.36,10.0,SSE,4.6,-,N/A,,Overcast,150,2013-03-14 12:55:00
8:15 AM,31.3,24.1,75,30.37,10.0,South,4.6,-,N/A,,Overcast,180,2013-03-14 13:15:00
8:35 AM,32.0,24.6,74,30.38,10.0,South,6.9,-,N/A,,Overcast,190,2013-03-14 13:35:00
8:55 AM,32.0,24.8,75,30.37,10.0,South,8.1,-,N/A,,Mostly Cloudy,180,2013-03-14 13:55:00
9:15 AM,33.3,25.0,72,30.38,10.0,South,6.9,-,N/A,,Mostly Cloudy,170,2013-03-14 14:15:00
9:35 AM,34.5,24.4,67,30.37,10.0,South,9.2,-,N/A,,Mostly Cloudy,180,2013-03-14 14:35:00
9:55 AM,34.9,24.4,66,30.38,10.0,South,9.2,-,N/A,,Mostly Cloudy,190,2013-03-14 14:55:00
10:15 AM,34.9,24.4,66,30.37,10.0,South,6.9,-,N/A,,Mostly Cloudy,190,2013-03-14 15:15:00
10:35 AM,35.8,24.3,63,30.37,10.0,South,9.2,-,N/A,,Scattered Clouds,180,2013-03-14 15:35:00
10:55 AM,36.5,24.3,61,30.36,10.0,South,8.1,-,N/A,,Scattered Clouds,170,2013-03-14 15:55:00
11:15 AM,37.6,23.9,58,30.35,10.0,South,8.1,-,N/A,,Scattered Clouds,170,2013-03-14 16:15:00
11:35 AM,37.4,23.5,57,30.34,10.0,South,8.1,-,N/A,,Scattered Clouds,170,2013-03-14 16:35:00
11:55 AM,37.8,24.1,58,30.34,10.0,SSE,10.4,-,N/A,,Scattered Clouds,160,2013-03-14 16:55:00
12:15 PM,38.3,24.1,57,30.33,10.0,South,10.4,-,N/A,,Scattered Clouds,180,2013-03-14 17:15:00
12:35 PM,39.2,24.6,56,30.32,10.0,South,11.5,-,N/A,,Mostly Cloudy,170,2013-03-14 17:35:00
12:55 PM,38.5,24.6,58,30.30,10.0,South,15.0,-,N/A,,Overcast,170,2013-03-14 17:55:00
1:15 PM,38.7,24.8,58,30.28,10.0,SSE,12.7,-,N/A,,Overcast,160,2013-03-14 18:15:00
1:35 PM,39.6,25.2,56,30.27,10.0,SSE,9.2,-,N/A,,Overcast,160,2013-03-14 18:35:00
1:55 PM,41.0,25.5,54,30.24,10.0,SE,11.5,-,N/A,,Overcast,140,2013-03-14 18:55:00
2:15 PM,42.6,25.9,52,30.22,10.0,SSE,13.8,-,N/A,,Mostly Cloudy,150,2013-03-14 19:15:00
2:35 PM,43.7,26.4,51,30.23,10.0,South,9.2,-,N/A,,Scattered Clouds,170,2013-03-14 19:35:00
2:55 PM,42.3,26.1,53,30.23,10.0,South,9.2,-,N/A,,Mostly Cloudy,170,2013-03-14 19:55:00
3:15 PM,43.7,27.5,53,30.19,10.0,SSE,13.8,21.9,N/A,,Scattered Clouds,160,2013-03-14 20:15:00
3:35 PM,44.6,28.2,53,30.17,10.0,SSE,13.8,-,N/A,,Clear,150,2013-03-14 20:35:00
3:55 PM,45.1,28.4,52,30.19,10.0,SSE,10.4,19.6,N/A,,Unknown,150,2013-03-14 20:55:00
4:15 PM,45.1,29.3,54,30.19,10.0,SSE,13.8,19.6,N/A,,Unknown,160,2013-03-14 21:15:00
4:35 PM,44.2,29.1,55,30.19,10.0,South,11.5,-,N/A,,Scattered Clouds,170,2013-03-14 21:35:00
4:55 PM,45.1,28.8,53,30.18,10.0,SSE,12.7,18.4,N/A,,Clear,160,2013-03-14 21:55:00
5:15 PM,44.6,28.2,53,30.18,10.0,SSE,16.1,-,N/A,,Scattered Clouds,160,2013-03-14 22:15:00
5:35 PM,44.2,29.1,55,30.17,10.0,SSE,13.8,-,N/A,,Mostly Cloudy,160,2013-03-14 22:35:00
5:55 PM,43.9,28.6,55,30.17,10.0,SSE,15.0,19.6,N/A,,Mostly Cloudy,150,2013-03-14 22:55:00
6:15 PM,42.8,28.9,58,30.16,10.0,SSE,10.4,-,N/A,,Clear,160,2013-03-14 23:15:00
6:35 PM,41.9,29.1,61,30.17,10.0,SE,10.4,-,N/A,,Clear,140,2013-03-14 23:35:00
6:55 PM,41.2,29.1,62,30.17,10.0,SE,9.2,-,N/A,,Clear,140,2013-03-14 23:55:00
7:15 PM,40.3,29.3,65,30.16,10.0,SE,8.1,-,N/A,,Clear,130,2013-03-15 00:15:00
7:35 PM,39.7,29.3,66,30.16,10.0,ESE,5.8,-,N/A,,Clear,110,2013-03-15 00:35:00
7:55 PM,39.2,29.1,67,30.17,10.0,East,4.6,-,N/A,,Clear,90,2013-03-15 00:55:00
8:15 PM,39.2,28.8,66,30.16,10.0,ESE,6.9,-,N/A,,Clear,120,2013-03-15 01:15:00
8:35 PM,38.7,28.9,68,30.16,10.0,ESE,6.9,-,N/A,,Clear,110,2013-03-15 01:35:00
8:55 PM,38.7,28.8,68,30.16,10.0,ESE,9.2,-,N/A,,Clear,120,2013-03-15 01:55:00
9:15 PM,38.7,28.4,67,30.15,10.0,ESE,9.2,-,N/A,,Clear,120,2013-03-15 02:15:00
9:35 PM,38.3,28.4,68,30.16,10.0,ESE,6.9,-,N/A,,Clear,110,2013-03-15 02:35:00
9:55 PM,37.4,28.9,71,30.15,10.0,ESE,5.8,-,N/A,,Clear,110,2013-03-15 02:55:00
10:15 PM,36.7,29.5,75,30.15,10.0,ESE,6.9,-,N/A,,Clear,110,2013-03-15 03:15:00
10:35 PM,36.3,29.8,77,30.14,10.0,ESE,8.1,-,N/A,,Clear,120,2013-03-15 03:35:00
10:55 PM,35.6,30.2,81,30.13,10.0,SE,8.1,-,N/A,,Clear,130,2013-03-15 03:55:00
11:15 PM,35.6,30.2,81,30.13,10.0,SE,9.2,-,N/A,,Clear,130,2013-03-15 04:15:00
11:35 PM,35.6,30.2,81,30.13,10.0,ESE,6.9,-,N/A,,Clear,120,2013-03-15 04:35:00
11:55 PM,35.2,30.2,82,30.13,10.0,ESE,4.6,-,N/A,,Clear,120,2013-03-15 04:55:00